Theta_e
306 307 307 309 309 309 310 310 310 305 302 302 303 306 309 309 313 312 308 309 309 308 313 315 314 313 313 312 313 309 310 309 313 312 314 313 314 312 311 311 312 311 310 309 309
307 306 306 307 307 307 309 310 309 304 301 302 303 306 309 312 314 312 308 309 308 310 312 313 314 313 311 313 311 310 309 313 314 313 314 313 312 313 313 312 312 312 308 309 308
308 307 305 303 302 304 306 309 309 304 301 301 303 307 309 314 315 312 309 309 310 311 312 313 313 313 313 313 313 311 312 313 315 314 313 313 314 313 313 313 310 311 308 307 306
309 308 306 304 303 301 303 307 307 305 302 300 302 307 309 314 321 311 309 310 312 313 313 312 314 314 314 314 312 314 313 314 314 313 314 314 312 312 311 311 308 307 308 307 305
310 309 307 306 305 303 303 304 304 303 302 300 303 308 314 312 313 310 309 310 313 313 313 313 313 313 314 312 312 313 313 314 313 313 313 313 312 311 311 309 307 307 307 305 305
312 310 309 308 307 305 305 304 304 302 300 300 303 311 316 312 310 310 310 311 314 314 314 313 313 313 313 314 315 313 313 314 313 313 313 314 312 311 310 307 307 308 305 304 305
313 312 310 309 308 307 306 306 305 302 300 301 304 312 312 310 310 309 310 313 314 314 313 314 314 314 314 314 313 313 315 314 313 313 313 310 309 311 309 307 308 308 304 304 303
314 313 312 310 309 308 307 306 306 302 301 302 305 312 309 311 310 310 311 312 313 313 313 313 313 313 314 313 313 314 313 313 314 313 312 308 309 309 307 307 308 307 304 304 304
317 315 313 311 310 308 308 307 303 302 302 304 311 311 307 309 309 309 311 312 313 314 312 312 312 312 313 312 312 312 311 314 314 312 313 311 308 308 307 307 308 307 304 304 303
319 317 315 313 310 309 308 305 302 303 307 309 310 306 306 309 309 310 310 311 312 313 314 314 309 311 311 311 311 317 314 312 311 312 311 311 312 310 309 307 307 306 304 303 304
320 319 317 314 311 310 309 304 307 308 308 306 307 307 309 309 309 310 311 311 312 312 314 313 310 307 311 312 314 312 312 312 311 312 311 311 311 310 308 308 307 306 305 303 302
320 321 318 315 312 309 308 305 304 303 298 304 306 308 309 308 309 310 310 312 312 311 312 310 310 311 311 311 312 312 312 310 310 311 310 309 310 310 308 307 308 308 305 303 303
319 319 319 315 312 309 308 306 304 303 300 303 303 306 308 308 310 310 309 309 311 312 311 311 312 312 312 311 312 312 310 309 309 309 309 308 308 307 312 310 308 307 306 304 303
314 317 318 315 311 309 306 304 303 302 309 309 305 306 307 307 307 309 309 309 310 311 311 311 310 311 310 311 309 310 312 310 311 309 307 307 310 303 310 311 310 308 305 303 300
309 314 316 316 312 306 304 303 302 307 329 310 305 306 307 304 308 308 308 309 310 309 308 311 310 310 310 310 308 309 309 309 310 310 311 308 305 308 308 309 310 308 306 303 299
306 309 314 313 309 304 300 301 306 318 328 310 306 308 308 308 309 308 309 308 309 310 309 309 308 309 309 308 308 308 310 310 309 309 307 305 307 310 305 309 307 308 307 301 298
302 307 309 312 310 304 301 306 313 324 312 310 308 308 308 309 310 309 310 310 310 310 311 310 309 308 308 309 308 309 308 309 309 310 310 311 309 311 307 311 307 307 306 299 298
300 304 308 310 312 309 307 309 319 317 315 308 309 308 310 309 310 310 310 308 308 309 309 310 312 308 307 309 309 308 307 310 310 314 311 308 311 309 306 307 308 306 302 298 297
298 306 308 309 309 306 310 314 320 318 314 309 309 309 308 309 310 310 309 309 308 308 311 310 312 307 307 307 308 309 310 307 308 301 307 306 304 304 307 307 305 303 299 298 297
298 304 306 308 307 307 312 315 314 315 310 309 316 309 308 307 310 310 309 309 311 307 307 310 313 308 307 307 307 307 305 306 304 304 308 308 308 307 308 307 305 303 299 297 296
299 305 303 304 304 306 311 311 312 313 309 310 312 311 309 308 307 310 309 309 309 309 308 308 311 309 308 308 308 307 308 308 305 308 311 309 308 302 305 306 305 303 301 298 295
297 303 301 302 305 301 307 310 310 313 307 309 309 311 309 307 307 307 309 309 307 307 309 309 310 311 310 306 305 304 307 307 309 308 306 309 308 304 306 305 303 303 303 300 295
295 297 299 301 305 303 302 306 306 309 309 310 310 310 309 308 309 309 308 306 306 307 308 307 303 303 306 306 303 307 305 305 304 304 307 308 309 304 303 306 304 302 301 300 295
293 297 297 297 296 303 306 307 310 305 309 310 312 309 309 309 309 308 309 306 306 307 306 307 305 306 313 312 304 307 306 305 305 306 307 307 307 306 303 304 305 303 302 298 295
293 290 296 301 300 302 304 305 309 308 304 309 310 315 311 312 313 309 307 305 305 307 306 308 315 305 305 306 305 305 306 306 306 307 308 309 307 309 307 304 302 302 302 297 296
295 295 296 296 300 301 302 304 307 309 305 307 310 312 314 315 313 313 307 306 308 306 306 307 311 302 300 303 303 304 303 304 306 308 307 307 307 307 305 303 301 301 302 299 297
293 293 292 291 295 295 302 303 306 309 306 308 309 311 313 315 312 311 309 308 309 308 307 307 305 309 316 302 297 305 302 304 305 304 307 308 308 307 306 305 305 303 301 302 299
Wind_Speed
6 6 7 9 10 11 12 13 14 13 12 11 9 8 7 4 2 2 2 4 7 9 6 6 5 6 3 4 4 3 2 3 3 4 3 1 3 3 1 2 2 2 3 2 4
8 7 7 8 9 10 10 12 12 12 11 10 9 8 6 2 4 6 5 7 7 8 4 8 3 7 4 0 2 4 3 5 1 0 2 2 2 4 1 2 1 2 1 3 5
9 10 9 9 9 10 11 12 12 12 12 12 11 9 6 2 3 1 8 8 7 6 3 3 4 1 1 1 0 3 4 3 1 1 1 3 1 2 3 4 5 5 4 2 5
8 9 11 10 11 12 12 14 14 13 13 13 12 11 4 2 2 2 7 6 3 1 2 3 2 2 1 1 1 2 1 2 3 1 1 2 2 3 6 5 7 7 4 2 3
10 9 10 11 11 12 13 15 15 14 14 12 10 10 2 3 0 3 5 5 2 2 3 2 2 1 3 3 0 1 2 3 3 3 2 1 4 5 7 6 7 5 4 5 3
12 11 11 11 11 12 13 15 15 15 14 11 8 7 3 1 3 3 4 3 5 3 3 3 1 1 2 2 2 1 3 3 4 3 2 3 3 2 4 7 7 4 7 6 5
14 13 12 11 12 13 14 15 15 15 13 7 5 5 2 3 0 1 2 4 4 3 2 1 1 2 2 1 1 2 1 3 4 3 2 1 6 9 3 6 7 6 7 7 7
16 15 14 12 12 13 15 16 16 14 6 3 2 1 3 3 2 2 1 1 2 2 2 1 2 3 3 0 3 1 2 3 1 5 1 3 9 3 8 8 9 7 7 7 6
17 16 15 13 12 13 15 17 15 7 2 2 0 1 4 2 3 3 2 2 1 1 0 1 2 3 2 4 4 4 2 3 5 7 2 4 8 4 7 8 9 8 7 7 6
20 17 16 13 12 13 16 17 4 2 1 2 1 2 1 3 4 3 2 2 0 0 1 1 4 3 2 3 4 3 2 4 5 2 3 6 18 10 8 9 10 8 7 7 6
20 20 17 14 12 11 14 3 1 0 3 6 3 1 4 4 5 3 3 2 1 1 3 1 3 5 8 6 3 2 2 3 3 1 3 7 16 19 10 9 11 9 8 7 7
23 21 20 15 12 10 8 2 2 0 4 6 3 0 2 4 2 3 4 3 3 4 3 3 5 4 4 5 4 2 1 4 5 2 3 5 21 15 8 8 10 13 8 8 5
18 23 20 15 11 9 8 6 1 1 1 3 4 3 3 4 3 5 7 4 3 4 6 5 1 4 3 3 3 2 4 3 4 6 3 8 9 5 3 1 4 4 4 5 7
8 15 19 18 6 7 4 5 5 2 3 5 4 2 2 4 3 1 2 3 2 7 5 4 2 4 2 2 4 2 3 3 1 4 3 5 5 6 4 6 2 6 7 7 7
13 8 23 23 6 6 4 7 6 2 2 3 3 2 3 4 4 1 1 2 4 5 5 4 5 3 2 3 5 3 4 3 1 1 3 4 3 8 5 5 6 8 8 6 6
14 11 27 24 10 6 10 8 4 2 8 4 4 5 5 3 2 2 1 2 1 3 2 1 1 3 4 2 3 5 3 4 4 2 2 3 4 6 3 5 3 4 8 8 7
15 10 15 21 7 16 15 7 2 6 2 5 5 5 4 5 4 4 5 5 6 5 4 1 2 1 3 4 3 2 3 2 4 2 4 2 1 10 6 6 5 7 8 8 7
13 10 10 15 14 25 17 4 7 4 5 3 5 6 6 6 4 6 6 5 6 2 3 6 3 7 3 3 4 5 5 4 5 2 3 2 6 6 3 5 4 5 7 7 7
16 5 7 20 18 31 4 4 6 5 6 8 4 4 3 4 5 4 8 5 8 12 6 5 1 2 2 1 2 4 4 2 5 2 3 3 7 7 3 2 3 7 6 8 7
13 4 4 14 24 18 3 8 5 4 5 4 8 5 8 6 7 7 8 5 4 9 3 5 4 1 1 1 2 3 3 3 2 2 4 5 5 6 5 8 7 7 9 8 6
5 2 2 14 22 3 4 7 6 5 5 7 7 5 5 8 8 5 6 4 5 5 6 3 3 1 2 6 8 3 2 1 2 4 4 2 6 6 5 7 11 11 10 9 8
5 2 3 24 4 2 3 6 6 7 1 2 2 3 8 9 7 6 10 4 2 7 9 3 3 4 4 1 1 3 6 6 4 5 2 1 7 5 4 5 8 10 11 8 7
3 2 3 4 4 3 2 2 3 6 7 6 4 4 2 7 4 6 7 2 3 6 8 7 1 2 5 3 2 5 5 4 4 3 6 5 6 1 3 4 5 8 9 9 9
2 2 1 1 1 1 4 4 6 3 4 5 5 4 2 5 3 8 6 2 4 1 1 5 4 6 7 3 4 5 6 6 5 4 3 10 6 6 6 7 6 7 8 9 11
1 3 2 2 4 4 0 2 8 6 2 3 1 12 11 4 3 5 4 2 3 3 2 3 5 2 3 3 2 4 4 9 13 14 8 5 16 21 11 9 11 9 7 9 12
1 1 2 3 5 6 9 2 3 7 8 5 4 12 17 11 8 7 6 4 4 3 4 1 2 3 4 3 7 6 9 12 16 19 18 14 29 12 12 5 5 10 10 12 14
2 3 1 4 3 4 1 4 5 4 5 5 14 6 14 19 11 2 4 8 8 8 6 5 5 3 4 3 3 8 18 20 13 12 17 15 31 3 8 8 13 12 12 16 17
Wind_Direction
329 337 347 350 353 359 360 359 360 0 1 357 358 360 357 356 83 120 52 347 347 351 8 356 42 17 24 31 43 81 68 248 235 181 185 158 157 334 347 109 80 66 98 165 0
317 328 332 336 338 344 349 351 351 354 356 356 354 349 341 352 152 78 14 5 2 4 33 32 4 3 27 35 24 99 144 234 278 88 159 151 168 182 136 18 161 185 99 357 34
313 323 323 329 330 332 336 340 343 350 353 353 351 348 338 321 183 329 6 8 20 21 26 326 346 44 166 111 343 168 207 178 266 139 91 186 167 210 152 239 210 202 262 313 41
313 314 323 320 330 331 331 335 339 346 349 351 350 346 349 359 205 355 1 6 33 12 10 9 31 60 111 205 236 199 164 154 187 284 287 211 290 259 197 231 170 201 211 129 72
298 308 315 321 319 328 330 335 338 341 344 345 350 349 11 36 88 349 359 7 25 74 45 46 110 153 188 185 233 197 195 118 182 193 223 267 254 246 235 197 197 206 149 149 163
286 295 304 312 319 318 324 328 332 333 337 341 349 3 29 30 136 9 19 33 45 65 49 50 139 286 129 155 165 270 176 190 207 236 252 241 257 17 258 183 208 206 188 188 194
274 283 291 301 313 314 316 320 323 326 331 338 346 17 42 225 178 47 64 47 43 33 126 98 266 171 116 128 270 125 325 287 232 207 238 93 268 232 198 180 207 227 202 209 213
263 271 279 292 302 310 311 313 317 320 328 342 339 44 242 200 202 195 193 113 52 58 125 87 13 100 81 169 24 35 57 330 253 158 190 71 272 280 184 178 221 231 222 228 227
255 260 269 278 292 305 310 313 314 309 293 279 356 95 277 170 190 186 184 187 128 42 72 327 57 107 56 95 15 5 244 230 309 203 126 182 271 277 187 203 231 237 229 226 243
258 253 258 266 278 297 311 316 303 301 125 164 285 4 236 210 161 183 155 170 201 65 26 84 56 87 51 103 221 209 240 251 249 225 213 263 263 256 219 215 229 231 235 225 228
258 254 248 253 267 290 318 357 22 32 212 197 218 227 131 134 144 188 177 153 131 67 173 215 107 202 216 195 200 162 224 263 273 290 272 237 270 276 226 224 230 226 229 222 204
258 258 245 241 249 271 298 265 264 244 308 224 250 221 127 170 129 204 171 154 154 194 129 42 231 224 170 167 159 119 97 280 283 223 248 308 289 283 254 232 212 206 212 210 177
251 249 249 229 233 257 235 226 215 203 176 260 194 179 195 161 218 206 157 167 171 179 189 182 280 166 146 149 156 149 166 226 242 324 277 322 292 337 318 335 185 186 179 186 180
293 246 237 210 209 212 230 207 197 169 49 216 210 224 133 156 232 155 166 175 197 202 176 235 209 171 147 177 141 221 172 162 339 31 271 28 280 308 322 319 203 189 182 176 154
341 277 223 213 180 175 161 161 161 72 269 132 169 122 138 166 127 283 89 90 188 182 121 242 168 162 165 197 172 207 141 133 93 38 6 340 64 271 347 311 240 212 208 189 166
319 351 208 189 190 164 146 138 123 69 239 153 126 162 133 174 163 136 130 39 160 138 86 169 272 174 166 71 81 133 94 46 49 67 3 245 128 286 233 220 283 210 210 181 169
319 309 202 195 197 167 148 102 80 207 346 190 175 166 172 163 176 173 168 174 164 127 202 78 224 254 141 101 25 106 86 339 346 10 225 164 67 247 255 242 220 203 196 182 178
317 295 256 222 197 170 139 67 215 210 188 130 128 122 178 158 201 182 146 198 239 145 128 159 268 178 190 201 171 176 166 164 219 225 278 90 236 252 219 295 207 163 169 168 187
326 297 228 228 198 162 155 191 205 212 155 153 97 131 228 206 151 158 192 215 205 183 171 154 172 75 30 61 150 183 193 170 106 31 36 230 280 295 168 99 113 148 168 200 196
322 293 233 231 191 167 186 213 223 209 120 191 179 154 174 196 160 182 187 213 221 180 191 195 102 338 183 127 32 154 161 78 357 142 268 278 273 245 230 220 195 191 205 211 204
284 221 270 204 164 186 211 194 200 214 206 173 193 152 176 174 173 199 200 273 215 157 166 167 110 220 94 206 180 142 206 135 123 160 183 296 263 212 223 198 205 203 202 199 196
337 225 193 159 178 210 193 188 192 162 169 209 120 167 174 169 164 207 206 232 151 151 165 149 97 182 195 8 190 187 188 168 149 213 224 162 272 212 234 263 209 197 196 193 183
328 291 335 186 203 213 275 268 252 152 170 167 172 226 171 176 168 196 189 75 352 167 162 177 225 62 348 354 348 218 202 168 116 84 206 152 257 230 278 281 219 189 192 185 178
331 306 313 45 261 193 181 207 208 211 213 179 161 145 89 209 255 174 162 117 14 60 115 108 164 173 190 156 127 200 194 183 153 162 176 232 296 261 244 230 224 220 194 182 180
231 266 335 216 245 224 157 247 191 193 266 201 204 192 162 217 154 174 126 112 46 13 1 167 188 150 266 189 182 218 186 184 205 215 196 256 232 251 242 237 218 218 193 176 186
293 255 327 297 292 215 207 227 238 206 162 216 212 192 181 189 203 195 125 182 176 108 171 263 162 117 298 234 216 238 224 216 216 232 240 253 272 250 253 246 226 216 187 194 197
325 296 149 291 330 8 337 231 228 250 224 235 210 176 208 209 196 253 159 152 152 153 172 160 139 131 244 41 28 294 226 215 220 223 217 228 244 178 258 240 244 232 196 207 201